CW3627 Weather Reports


Display with metric or nautical units.
time (UTC)temp
F
wind
direction
speed
MPH
gust
MPH
rain 1hr
in
rain 24hr
in
rain mn
in
humidity
%
barometer
mb
20200330013733 58 238 1.0 7.0 0.00 0.24 0.22 75 1019.0
20200330013244 58 217 2.0 9.0 0.00 0.24 0.22 75 1019.0
20200330012733 58 222 4.0 9.0 0.00 0.24 0.22 73 1018.8
20200330012242 58 181 1.0 8.0 0.00 0.24 0.22 73 1018.8
20200330011732 59 179 2.0 8.0 0.00 0.24 0.22 73 1018.8
20200330011239 59 212 1.0 9.0 0.00 0.24 0.22 71 1018.8
20200330010734 59 243 2.0 6.0 0.00 0.24 0.22 70 1018.8
20200330010239 59 163 1.0 8.0 0.00 0.24 0.22 68 1018.8
20200330005747 59 169 3.0 11.0 0.00 0.24 0.22 67 1018.8
20200330005233 60 200 4.0 11.0 0.00 0.24 0.22 66 1018.8
20200330004746 60 218 1.0 9.0 0.00 0.24 0.22 66 1018.8
20200330004232 60 268 3.0 9.0 0.00 0.24 0.22 66 1018.8
20200330003746 60 274 3.0 9.0 0.00 0.24 0.22 67 1018.8
20200330003242 60 180 2.0 7.0 0.00 0.24 0.22 68 1018.8
20200330002735 60 256 1.0 5.0 0.00 0.24 0.22 70 1018.7
20200330002245 60 195 2.0 6.0 0.00 0.24 0.22 70 1018.7
20200330001732 60 161 1.0 6.0 0.00 0.24 0.22 70 1018.7
20200330001242 60 194 1.0 7.0 0.00 0.24 0.22 70 1018.8
20200330000735 60 178 2.0 8.0 0.00 0.24 0.22 69 1018.8
20200330000242 61 178 2.0 8.0 0.00 0.24 0.22 68 1018.8
20200329235735 61 250 1.0 7.0 0.00 0.24 0.22 71 1018.8
20200329235243 61 186 1.0 7.0 0.00 0.24 0.22 70 1018.8
20200329234735 61 246 2.0 7.0 0.00 0.24 0.22 70 1018.8
20200329234243 60 153 1.0 8.0 0.00 0.24 0.22 73 1018.8
20200329233732 60 194 0.0 5.0 0.00 0.24 0.22 73 1018.8
20200329233240 61 166 0.0 5.0 0.00 0.24 0.22 72 1018.8
20200329232746 61 193 1.0 5.0 0.00 0.24 0.22 72 1018.8
20200329232234 61 159 0.0 8.0 0.00 0.24 0.22 71 1018.8
20200329231742 61 242 1.0 9.0 0.00 0.24 0.22 71 1018.8
20200329231235 61 112 2.0 9.0 0.00 0.24 0.22 72 1018.9
20200329230748 60 109 1.0 7.0 0.00 0.24 0.22 73 1018.9
20200329230238 59 209 0.0 1.0 0.00 0.24 0.22 74 1018.9
20200329225747 59 153 0.0 0.0 0.00 0.24 0.22 77 1019.2
20200329225233 58 153 0.0 6.0 0.00 0.24 0.22 77 1019.2
20200329224744 58 247 2.0 6.0 0.00 0.24 0.22 77 1019.2
20200329224235 58 223 0.0 6.0 0.00 0.24 0.22 78 1019.3
20200329223748 58 213 0.0 0.0 0.00 0.24 0.22 78 1019.3
20200329223236 57 213 0.0 2.0 0.00 0.24 0.22 79 1019.3
20200329222744 57 213 0.0 4.0 0.00 0.24 0.22 77 1019.3
20200329222237 57 214 1.0 6.0 0.00 0.24 0.22 82 1019.3
20200329221745 57 196 2.0 6.0 0.00 0.24 0.22 80 1019.3
20200329221233 57 241 0.0 3.0 0.00 0.24 0.22 82 1019.3
20200329220741 57 241 0.0 3.0 0.00 0.24 0.22 83 1019.3
20200329220248 57 241 0.0 4.0 0.00 0.24 0.22 84 1019.3
20200329215734 57 241 1.0 4.0 0.00 0.24 0.22 84 1019.4
20200329215239 57 241 1.0 4.0 0.00 0.24 0.22 85 1019.4
20200329214750 57 184 0.0 4.0 0.00 0.24 0.22 84 1019.4
20200329214240 57 159 0.0 4.0 0.00 0.24 0.22 84 1019.5
20200329213731 56 120 1.0 4.0 0.00 0.24 0.22 84 1019.5
20200329213240 56 161 0.0 5.0 0.00 0.24 0.22 85 1019.5
20200329212750 56 176 1.0 7.0 0.00 0.24 0.22 86 1019.6
20200329212236 56 111 3.0 7.0 0.00 0.24 0.22 85 1019.6
20200329211743 57 114 1.0 6.0 0.00 0.24 0.22 86 1019.6
20200329211234 57 108 1.0 7.0 0.00 0.24 0.22 82 1019.4
20200329210744 58 181 1.0 8.0 0.00 0.24 0.22 79 1019.4
20200329210239 59 115 2.0 7.0 0.00 0.24 0.22 77 1019.4
20200329205745 59 101 0.0 4.0 0.00 0.24 0.22 75 1019.4
20200329205243 59 121 0.0 4.0 0.00 0.24 0.22 74 1019.4
20200329204747 59 114 0.0 4.0 0.00 0.24 0.22 75 1019.4
20200329204234 59 106 1.0 7.0 0.00 0.24 0.22 72 1019.4
20200329203741 59 119 2.0 7.0 0.00 0.24 0.22 77 1019.4
20200329203250 59 107 1.0 9.0 0.00 0.24 0.22 79 1019.4
20200329202739 58 99 6.0 11.0 0.00 0.24 0.22 80 1019.3
20200329202249 59 117 5.0 11.0 0.00 0.24 0.22 82 1019.3
20200329201740 59 195 0.0 5.0 0.00 0.24 0.22 79 1019.3
20200329201230 58 120 2.0 6.0 0.00 0.24 0.22 78 1019.4
20200329200743 58 183 0.0 6.0 0.00 0.24 0.22 78 1019.4
20200329200232 58 179 1.0 5.0 0.00 0.24 0.22 79 1019.4
20200329195739 58 142 0.0 7.0 0.00 0.24 0.22 76 1019.5
20200329195248 59 115 2.0 7.0 0.00 0.24 0.22 80 1019.5
20200329194735 58 115 3.0 8.0 0.00 0.24 0.22 78 1019.5
20200329194246 58 111 0.0 8.0 0.00 0.24 0.22 82 1019.6
20200329193740 57 111 1.0 8.0 0.00 0.24 0.22 81 1019.6
20200329193248 57 106 5.0 8.0 0.00 0.24 0.22 79 1019.6
20200329192735 58 101 2.0 7.0 0.00 0.24 0.22 82 1019.7
20200329192241 58 109 3.0 7.0 0.00 0.24 0.22 82 1019.7
20200329191735 57 126 1.0 5.0 0.00 0.24 0.22 85 1019.7
20200329191249 57 153 0.0 8.0 0.00 0.24 0.22 84 1019.6
20200329190739 57 108 3.0 8.0 0.00 0.24 0.22 83 1019.6
20200329190246 57 130 3.0 7.0 0.00 0.24 0.22 83 1019.6
20200329185736 57 124 2.0 7.0 0.00 0.24 0.22 85 1019.7
20200329185246 56 137 0.0 8.0 0.00 0.24 0.22 87 1019.7
20200329184735 56 115 2.0 8.0 0.00 0.24 0.22 87 1019.7
20200329184247 56 129 2.0 11.0 0.00 0.24 0.22 87 1019.5
20200329183735 56 117 5.0 9.0 0.00 0.24 0.22 88 1019.5
20200329183230 56 111 2.0 8.0 0.00 0.24 0.22 95 1019.5
20200329182743 55 118 1.0 7.0 0.00 0.24 0.22 94 1019.6
20200329182231 54 119 4.0 10.0 0.00 0.24 0.22 94 1019.6
20200329181741 54 121 6.0 10.0 0.00 0.24 0.22 94 1019.6
20200329181232 54 113 0.0 8.0 0.00 0.24 0.22 96 1019.6
20200329180742 53 117 1.0 8.0 0.00 0.24 0.22 95 1019.6
20200329180249 53 111 0.0 7.0 0.00 0.24 0.22 95 1019.6
20200329175735 53 109 3.0 8.0 0.00 0.24 0.22 95 1019.4
20200329175244 53 109 3.0 8.0 0.00 0.24 0.22 95 1019.4
20200329174734 52 115 0.0 7.0 0.00 0.24 0.22 95 1019.4
20200329174242 52 115 3.0 8.0 0.00 0.24 0.22 95 1019.3
20200329173730 52 120 2.0 8.0 0.00 0.24 0.22 95 1019.3
20200329173245 52 121 1.0 9.0 0.00 0.24 0.22 95 1019.3
20200329172733 52 115 3.0 9.0 0.00 0.24 0.22 96 1019.2
20200329172244 52 127 1.0 7.0 0.01 0.24 0.22 96 1019.2
20200329171734 52 104 1.0 8.0 0.01 0.24 0.22 96 1019.2
20200329171244 52 119 3.0 7.0 0.01 0.24 0.22 96 1019.0
20200329170738 52 113 0.0 5.0 0.01 0.24 0.22 96 1019.0
20200329170248 52 113 1.0 5.0 0.01 0.24 0.22 97 1019.0
20200329165739 52 124 2.0 7.0 0.01 0.24 0.22 96 1018.9
20200329165248 51 126 3.0 7.0 0.01 0.24 0.22 96 1018.9
20200329164738 51 114 3.0 6.0 0.02 0.24 0.22 96 1018.9
20200329164247 51 175 1.0 3.0 0.03 0.24 0.22 96 1018.8
20200329163735 51 175 0.0 4.0 0.03 0.24 0.22 96 1018.8
20200329163243 51 175 1.0 3.0 0.05 0.24 0.22 96 1018.8
20200329162733 51 175 0.0 0.0 0.07 0.24 0.22 96 1018.8
20200329162249 51 175 0.0 0.0 0.07 0.23 0.21 96 1018.8
20200329161734 51 175 0.0 0.0 0.07 0.23 0.21 96 1018.8
20200329161232 51 175 0.0 0.0 0.08 0.23 0.21 96 1018.7
20200329160745 51 175 0.0 0.0 0.09 0.23 0.21 96 1018.7
20200329160236 50 175 0.0 0.0 0.10 0.23 0.21 96 1018.7
20200329155747 50 175 0.0 1.0 0.14 0.24 0.21 96 1018.7
20200329155235 50 175 0.0 0.0 0.17 0.24 0.21 96 1018.7
20200329154748 50 175 0.0 0.0 0.17 0.23 0.20 96 1018.7
20200329154239 50 175 0.0 0.0 0.16 0.22 0.19 96 1018.5
20200329153748 50 175 0.0 0.0 0.16 0.22 0.19 96 1018.5
20200329153238 50 175 0.0 0.0 0.14 0.20 0.17 96 1018.5
20200329152745 50 175 0.0 0.0 0.12 0.18 0.15 96 1018.4
20200329152236 50 175 0.0 0.0 0.11 0.17 0.14 96 1018.4
20200329151747 50 175 0.0 0.0 0.11 0.17 0.14 96 1018.4
20200329151234 50 175 0.0 0.0 0.10 0.16 0.13 96 1018.2
20200329150733 50 175 0.0 0.0 0.09 0.15 0.12 96 1018.2
20200329150243 50 175 0.0 0.0 0.08 0.14 0.11 96 1018.2
20200329145731 49 175 0.0 0.0 0.03 0.10 0.06 96 1018.2
20200329145242 49 175 0.0 0.0 0.01 0.08 0.04 96 1018.2
20200329144747 49 175 0.0 0.0 0.00 0.07 0.03 96 1018.2
20200329144242 49 175 0.0 0.0 0.00 0.07 0.03 96 1018.2
20200329143750 49 175 0.0 0.0 0.00 0.07 0.03 96 1018.2
20200329143238 49 175 0.0 0.0 0.00 0.07 0.03 96 1018.2
20200329142747 49 175 0.0 0.0 0.00 0.07 0.03 96 1017.9
20200329142235 49 175 0.0 0.0 0.00 0.07 0.03 95 1017.9
20200329141747 49 175 0.0 0.0 0.00 0.07 0.03 95 1017.9
20200329141235 49 175 0.0 0.0 0.00 0.07 0.03 95 1017.7
20200329140748 49 175 0.0 0.0 0.00 0.07 0.03 95 1017.7
20200329140238 49 175 0.0 0.0 0.00 0.07 0.03 95 1017.7
20200329135750 49 175 0.0 0.0 0.01 0.08 0.03 95 1017.6
20200329135238 49 175 0.0 0.0 0.01 0.08 0.03 95 1017.6
20200329134747 49 175 0.0 0.0 0.01 0.08 0.03 95 1017.6
20200329134242 49 175 0.0 0.0 0.01 0.08 0.03 95 1017.6
20200329133750 49 175 0.0 0.0 0.01 0.08 0.03 95 1017.6
20200329133240 49 175 0.0 0.0 0.01 0.08 0.03 95 1017.6
20200329132736 49 175 0.0 0.0 0.02 0.08 0.03 95 1017.5
20200329132245 49 175 0.0 0.0 0.03 0.08 0.03 95 1017.5
20200329131738 49 175 0.0 0.0 0.03 0.08 0.03 95 1017.5
20200329131230 49 175 0.0 0.0 0.03 0.08 0.03 95 1017.5
20200329130744 49 175 0.0 0.0 0.03 0.08 0.03 95 1017.5
20200329130233 49 175 0.0 0.0 0.03 0.08 0.03 95 1017.5
20200329125739 49 175 0.0 0.0 0.02 0.07 0.02 95 1017.6
20200329125245 49 175 0.0 0.0 0.02 0.07 0.02 95 1017.6
20200329124733 49 175 0.0 0.0 0.02 0.07 0.02 95 1017.6
20200329124241 49 175 0.0 0.0 0.02 0.07 0.02 95 1017.5
20200329123748 49 175 0.0 0.0 0.02 0.07 0.02 94 1017.5
20200329123239 49 175 0.0 0.0 0.02 0.07 0.02 94 1017.5
20200329122749 49 175 0.0 0.0 0.01 0.06 0.01 94 1017.5
20200329122235 49 175 0.0 0.0 0.00 0.05 0.00 94 1017.5
20200329121745 49 175 0.0 0.0 0.00 0.05 0.00 94 1017.5
20200329121231 49 175 0.0 0.0 0.00 0.05 0.00 94 1017.4
20200329120740 49 175 0.0 0.0 0.00 0.05 0.00 94 1017.4
20200329120247 49 175 0.0 0.0 0.00 0.05 0.00 94 1017.4
20200329115737 49 175 0.0 0.0 0.00 0.05 0.00 94 1017.6
20200329115246 49 175 0.0 0.0 0.00 0.05 0.00 94 1017.6
20200329114738 49 175 0.0 0.0 0.00 0.05 0.00 93 1017.6
20200329114245 49 175 0.0 0.0 0.00 0.05 0.00 94 1017.4
20200329113736 49 175 0.0 0.0 0.00 0.05 0.00 94 1017.4
20200329113243 49 175 0.0 0.0 0.00 0.05 0.00 94 1017.4
20200329112748 49 175 0.0 0.0 0.00 0.05 0.00 94 1017.6
20200329112233 49 175 0.0 0.0 0.00 0.05 0.00 94 1017.6
20200329111746 49 175 0.0 0.0 0.00 0.05 0.00 94 1017.6
20200329111235 49 175 0.0 0.0 0.00 0.05 0.00 94 1017.7
20200329110742 49 175 0.0 0.0 0.00 0.05 0.00 94 1017.7
20200329110232 49 175 0.0 0.0 0.00 0.05 0.00 94 1017.7
20200329105747 49 175 0.0 0.0 0.00 0.05 0.00 94 1017.7
20200329105232 49 175 0.0 0.0 0.00 0.05 0.00 94 1017.7
20200329104740 49 175 0.0 0.0 0.00 0.05 0.00 94 1017.7
20200329104245 49 175 0.0 0.0 0.00 0.05 0.00 94 1017.8
20200329103733 49 175 0.0 0.0 0.00 0.05 0.00 94 1017.8
20200329103241 49 175 0.0 0.0 0.00 0.05 0.00 94 1017.8
20200329102731 49 175 0.0 0.0 0.00 0.05 0.00 94 1018.2
20200329102239 49 175 0.0 0.0 0.00 0.05 0.00 94 1018.2
20200329101747 49 175 0.0 0.0 0.00 0.05 0.00 94 1018.2
20200329101238 49 175 0.0 0.0 0.00 0.05 0.00 94 1018.2
20200329100745 49 175 0.0 0.0 0.00 0.05 0.00 94 1018.2
20200329100234 49 175 0.0 0.0 0.00 0.05 0.00 94 1018.2
20200329095744 49 175 0.0 0.0 0.00 0.05 0.00 94 1018.4
20200329095237 49 175 0.0 0.0 0.00 0.05 0.00 94 1018.4
20200329094747 49 175 0.0 0.0 0.00 0.05 0.00 94 1018.4
20200329094235 49 175 0.0 0.0 0.00 0.05 0.00 94 1018.6
20200329093739 49 175 0.0 0.0 0.00 0.05 0.00 94 1018.6
20200329093251 49 175 0.0 0.0 0.00 0.05 0.00 94 1018.6
20200329092735 49 175 0.0 0.0 0.00 0.05 0.00 94 1018.7
20200329092243 49 175 0.0 0.0 0.00 0.05 0.00 94 1018.7
20200329091241 49 175 0.0 0.0 0.00 0.05 0.00 94 1018.8
20200329090731 49 175 0.0 0.0 0.00 0.05 0.00 94 1018.8
20200329090244 49 175 0.0 0.0 0.00 0.05 0.00 94 1018.8
20200329085733 49 175 0.0 0.0 0.00 0.05 0.00 94 1018.8
20200329085240 49 175 0.0 0.0 0.00 0.05 0.00 94 1018.8
20200329084748 49 175 0.0 0.0 0.00 0.05 0.00 94 1018.8
20200329084242 49 175 0.0 0.0 0.00 0.05 0.00 94 1018.9
20200329083749 49 175 0.0 0.0 0.00 0.05 0.00 94 1018.9
20200329083238 49 175 0.0 1.0 0.00 0.05 0.00 94 1018.9
20200329082733 49 175 0.0 1.0 0.00 0.05 0.00 94 1019.0
20200329082238 49 175 0.0 0.0 0.00 0.05 0.00 94 1019.0
20200329081744 49 175 0.0 0.0 0.00 0.05 0.00 94 1019.0
20200329081232 49 175 0.0 0.0 0.00 0.05 0.00 94 1019.0
20200329080740 49 175 0.0 0.0 0.00 0.05 0.00 94 1019.0
20200329080229 49 175 0.0 0.0 0.00 0.05 0.00 94 1019.0
20200329075738 49 175 0.0 0.0 0.00 0.05 0.00 94 1019.1
20200329075242 49 175 0.0 0.0 0.00 0.05 0.00 94 1019.1
20200329074751 49 175 0.0 0.0 0.00 0.05 0.00 94 1019.1
20200329074239 49 175 0.0 0.0 0.00 0.05 0.00 94 1019.1
20200329073746 49 175 0.0 0.0 0.00 0.05 0.00 94 1019.1
20200329073237 49 175 0.0 0.0 0.00 0.05 0.00 94 1019.1
20200329072748 49 175 0.0 0.0 0.00 0.05 0.00 94 1019.1
20200329072239 49 175 0.0 0.0 0.00 0.05 0.00 94 1019.1
20200329071744 49 175 0.0 0.0 0.00 0.05 0.00 94 1019.1
20200329071233 49 175 0.0 0.0 0.00 0.05 0.00 94 1019.2
20200329070742 49 175 0.0 0.0 0.00 0.05 0.00 94 1019.2
20200329070231 49 175 0.0 0.0 0.00 0.05 0.00 94 1019.2
20200329065744 49 175 0.0 0.0 0.00 0.05 0.05 94 1019.2
20200329065231 49 175 0.0 0.0 0.00 0.05 0.05 94 1019.2
20200329064740 49 175 0.0 0.0 0.00 0.05 0.05 94 1019.2
20200329064245 49 175 0.0 0.0 0.00 0.05 0.05 94 1019.3
20200329063736 50 175 0.0 0.0 0.00 0.05 0.05 94 1019.3
20200329063248 50 175 0.0 0.0 0.00 0.05 0.05 94 1019.3
20200329062732 50 175 0.0 0.0 0.00 0.05 0.05 94 1019.3
20200329062237 50 175 0.0 0.0 0.00 0.05 0.05 94 1019.3
20200329061742 50 175 0.0 0.0 0.00 0.05 0.05 93 1019.3
20200329061250 49 175 0.0 0.0 0.00 0.05 0.05 93 1019.3
20200329060735 50 175 0.0 0.0 0.00 0.05 0.05 93 1019.3
20200329060240 50 175 0.0 0.0 0.00 0.05 0.05 93 1019.3
20200329055750 50 175 0.0 0.0 0.00 0.05 0.05 93 1019.3
20200329055235 50 175 0.0 0.0 0.00 0.05 0.05 93 1019.3
20200329054743 50 175 0.0 0.0 0.00 0.05 0.05 94 1019.3
20200329054251 50 175 0.0 0.0 0.00 0.05 0.05 94 1019.3
20200329053739 50 175 0.0 0.0 0.00 0.05 0.05 94 1019.3
20200329053233 50 175 0.0 0.0 0.00 0.05 0.05 94 1019.3
20200329052740 50 175 0.0 0.0 0.01 0.05 0.05 94 1019.5
20200329052229 50 175 0.0 0.0 0.01 0.05 0.05 93 1019.5
20200329051739 50 175 0.0 0.0 0.01 0.05 0.05 93 1019.5
20200329051251 50 175 0.0 0.0 0.01 0.05 0.05 93 1019.4
20200329050738 50 175 0.0 0.0 0.01 0.05 0.05 93 1019.4
20200329050244 50 175 0.0 0.0 0.01 0.05 0.05 93 1019.4
20200329045749 50 175 0.0 0.0 0.01 0.05 0.05 92 1019.5
20200329045234 50 175 0.0 0.0 0.01 0.05 0.05 92 1019.5
20200329044741 50 175 0.0 0.0 0.01 0.05 0.05 92 1019.5
20200329044232 50 175 0.0 0.0 0.01 0.05 0.05 92 1019.4
20200329043740 50 175 0.0 0.0 0.01 0.05 0.05 92 1019.4
20200329043246 50 175 0.0 0.0 0.01 0.05 0.05 92 1019.4
20200329042739 50 175 0.0 0.0 0.00 0.04 0.04 92 1019.3
20200329042249 50 175 0.0 0.0 0.00 0.04 0.04 92 1019.3
20200329041736 50 175 0.0 0.0 0.00 0.04 0.04 92 1019.3
20200329041229 50 175 0.0 0.0 0.00 0.04 0.04 92 1019.3
20200329040745 50 175 0.0 0.0 0.00 0.04 0.04 91 1019.3
20200329040236 50 175 0.0 0.0 0.00 0.04 0.04 91 1019.3
20200329035743 50 175 0.0 0.0 0.00 0.04 0.04 91 1019.3
20200329035251 50 175 0.0 0.0 0.00 0.04 0.04 91 1019.3
20200329034738 50 175 0.0 0.0 0.00 0.04 0.04 91 1019.3
20200329034233 50 175 0.0 0.0 0.00 0.04 0.04 91 1019.3
20200329033743 50 175 0.0 0.0 0.00 0.04 0.04 91 1019.3
20200329033237 50 175 0.0 0.0 0.00 0.04 0.04 90 1019.3
20200329032740 50 175 0.0 0.0 0.00 0.04 0.04 90 1019.2
20200329032246 50 175 0.0 0.0 0.01 0.04 0.04 90 1019.2
20200329031751 50 175 0.0 0.0 0.01 0.04 0.04 90 1019.2
20200329031237 51 175 0.0 0.0 0.01 0.04 0.04 90 1019.2
20200329030744 51 175 0.0 0.0 0.01 0.04 0.04 90 1019.2
20200329030235 51 175 0.0 0.0 0.01 0.04 0.04 89 1019.2
20200329025746 51 175 0.0 0.0 0.01 0.04 0.04 89 1019.3
20200329025240 51 175 0.0 0.0 0.01 0.04 0.04 89 1019.3
20200329024733 51 175 0.0 0.0 0.01 0.04 0.04 88 1019.3
20200329024241 51 175 0.0 0.0 0.01 0.04 0.04 88 1019.3
20200329023748 51 175 0.0 0.0 0.01 0.04 0.04 88 1019.3
20200329023239 51 175 0.0 0.0 0.01 0.04 0.04 87 1019.3
20200329022747 51 175 0.0 1.0 0.01 0.04 0.04 86 1019.4
20200329022251 52 175 0.0 7.0 0.00 0.03 0.03 86 1019.4
20200329021741 52 223 0.0 7.0 0.00 0.03 0.03 85 1019.4
20200329021235 52 250 0.0 4.0 0.00 0.03 0.03 86 1019.4
20200329020744 52 192 0.0 3.0 0.00 0.03 0.03 86 1019.4
20200329020238 52 192 0.0 3.0 0.00 0.03 0.03 86 1019.4
20200329015751 52 200 0.0 5.0 0.00 0.03 0.03 87 1019.4
20200329015235 52 200 1.0 6.0 0.00 0.03 0.03 86 1019.4
20200329014747 52 233 2.0 6.0 0.00 0.03 0.03 86 1019.4
20200329014239 52 243 1.0 8.0 0.00 0.03 0.03 87 1019.4